Torna al catalogo

COSMOS 2251 DEB

AttivoLEO
NORAD 37961·DEBRIS·🇷🇺 Russia

Lanciato Jun 16, 1993 da Plesetsk Cosmodrome

Loading…

Prossimi Passaggi (prossime 24 ore)

TLE

In scadenzaSource: Space-Track

Epoca: Sep 12, 2026, 05:24 UTC

1 37961U 93036BPL 26255.22525765  .00001728  00000-0  36335-3 0  9992
2 37961  74.0449 336.1291 0040606 344.7307  15.2630 14.59858536840547

Traccia COSMOS 2251 DEB in tempo reale con AllMySat

Download on the App Store